Domov               UVHVVR             MKGP            O straneh              
ZDRAVSTVENO VARSTVO RASTLIN
  MREŽA AGROMET. POSTAJ
 ► PROGNOSTIČNA OBVESTILA
AGROMETEOROLOŠKI PODATKI -
ARSO
OBVLADOVANJE TVEGANJ ZARADI
NEUGODNIH VREMENSKIH RAZMER
  ► NARAVNE NESREČE
  ► SUŠA/MOČA
  ► NAMAKANJE
  ► ŽLED (gozdarstvo)
KARTOGRAFSKI PRIKAZI
SPLETNE POVEZAVE
PROJEKTI IN PUBLIKACIJE

AGROMETEOROLOŠKA MREŽA: VREMENSKE POSTAJE IN FENOLOŠKA OPAZOVANJA

Pregled podatkov za lokacijo BOROVNICA, meteorološka postaja 27469

Pregled senzorjev na lokaciji

ID Ime Zadnja
vrednost
Datum
zadnje
spremembe
Tip
senzorja
1683 Temperatura 2 m ( °C) 29,18 °C 17.8.2017 18:30 Generic -40 - +60 °C
1684 Relativna vlaga 2 m (% RH) 50,77 % RH 17.8.2017 18:30 Generic 0 - 100 %
2195 Padavine 0.2 mm (mm) 0 mm 17.8.2017 18:30 Generic 0.2 mm
2199 Omočenost lista (U) 0 U 17.8.2017 18:30 A730WET

Pregled podatkov zadnjih 24 ur

Zap.
št.
Datum in čas BOROVNICA
Omočenost
lista
Padavine
0.2
mm
Relativna
vlaga
2
m
Temperatura
2
m
0 17.8.2017 17:30 0 0 50,77 29,18
1 17.8.2017 17:00 0 0 42,34 29,45
2 17.8.2017 16:30 0 0 41,51 29,57
3 17.8.2017 16:00 0 0 38,9 30,04
4 17.8.2017 15:30 0 0 39,9 30,06
5 17.8.2017 15:00 0 0 39,66 29,96
6 17.8.2017 14:30 0 0 40,44 29,96
7 17.8.2017 14:00 0 0 39,46 29,72
8 17.8.2017 13:30 0 0 43,74 29,38
9 17.8.2017 13:00 0 0 44,49 28,91
10 17.8.2017 12:30 0 0 46,25 28,4
11 17.8.2017 12:00 0 0 49,82 27,89
12 17.8.2017 11:30 0 0 50,67 26,96
13 17.8.2017 11:00 0 0 52,01 26,42
14 17.8.2017 10:30 0 0 55,21 25,69
15 17.8.2017 10:00 0 0 57,34 24,66
16 17.8.2017 09:30 0 0 64,52 23,66
17 17.8.2017 09:00 0 0 65,52 22,66
18 17.8.2017 08:30 0 0 76,92 21,25
19 17.8.2017 08:00 0 0 72,58 20,95
20 17.8.2017 07:30 0 0 82,25 19,51
21 17.8.2017 07:00 0 0 85,71 18,46
22 17.8.2017 06:30 0 0 99,93 16,7
23 17.8.2017 06:00 0 0 99,93 15,43
24 17.8.2017 05:30 0 0 99,93 14,99
25 17.8.2017 05:00 0 0 99,93 14,8
26 17.8.2017 04:30 0 0 99,93 14,8
27 17.8.2017 04:00 0 0 99,93 14,48
28 17.8.2017 03:30 0 0 99,93 14,51
29 17.8.2017 03:00 0 0 99,93 14,7
30 17.8.2017 02:30 0 0 99,93 14,58
31 17.8.2017 02:00 0 0,2 99,93 14,38
32 17.8.2017 01:30 0 0 99,93 14,68
33 17.8.2017 01:00 0 0 99,93 14,58
34 17.8.2017 00:30 0 0 99,93 14,92
35 17.8.2017 00:00 0 0 99,93 15,29
36 16.8.2017 23:30 0 0 99,93 16,02
37 16.8.2017 23:00 0 0 99,93 17,14
38 16.8.2017 22:30 0 0 99,93 17,66
39 16.8.2017 22:00 0 0 99,93 18,32
40 16.8.2017 21:30 0 0 99,93 18,85
41 16.8.2017 21:00 0 0 93,9 18,97
42 16.8.2017 20:30 0 0 90,45 19,88
43 16.8.2017 20:00 0 0 73,87 21,03
© 2011 Ministrstvo za kmetijstvo, gozdarstvo in prehrano. Vse pravice pridržane.